Flag Weather past 2 weeks in Caguas, Puerto Rico

Now
83 °F

Passing clouds.


Feels Like: 88 °F
Forecast: 69 / 85 °F
Wind: 6 mph from East

Location: Luis Munoz Marin

Current Time: Nov 27, 2014 at 11:03:18 AM

Latest Report: Nov 27, 2014 at 9:56 AM


Visibility: 10 mi

Pressure: 30.02 "Hg

Humidity: 70%

Dew point: 72 °F

Location of CaguasLocation

Historic Weather in Caguas — Graph

°F

Caguas temperature yesterday

Maximum temperature yesterday: 85 °F (at 1:56 PM)
Minimum temperature yesterday: 75 °F (at 5:56 AM)
Average temperature yesterday: 79 °F

Past Weeks' High & Low Weather Summary

 TemperatureHumidityPressure
High89 °F (Nov 15, 12:56 PM)100% (Nov 22, 1:56 AM)30.09 "Hg (Nov 22, 1:56 AM)
Low74 °F (Nov 27, 5:56 AM)61% (Nov 20, 11:56 AM)29.86 "Hg (Nov 12, 2:56 PM)
Average81 °F82%29.99 "Hg
* Reported Nov 12 9:56 AM — Nov 27 9:56 AM, Caguas, Weather by CustomWeather, © 2014

Note: Actual official high and low records may vary slightly from our data, if they occured in-between our weather recording intervals... More about our weather records

Advertising

Caguas weather history for previous 24 hours

 ConditionsComfort  
Time TempWeatherWind HumidityBarometerVisibility
9:56 AM
Nov 27
83 °FPassing clouds.6 mph70%30.02 "Hg10 mi
8:56 AM80 °FScattered clouds.3 mph71%30.01 "Hg10 mi
7:56 AM78 °FScattered clouds.No wind76%30.00 "Hg10 mi
6:56 AM74 °FPassing clouds.No wind88%29.99 "Hg10 mi
5:56 AM74 °FPassing clouds.No wind91%29.98 "Hg10 mi
4:56 AM75 °FPassing clouds.5 mph90%29.97 "Hg10 mi
3:56 AM76 °FPassing clouds.5 mph85%29.97 "Hg10 mi
2:56 AM76 °FPassing clouds.3 mph91%29.96 "Hg10 mi
1:56 AM76 °FPartly cloudy.No wind94%29.98 "Hg10 mi
12:56 AM77 °FPassing clouds.No wind90%30.00 "Hg10 mi
11:56 PM
Nov 26
77 °FPassing clouds.No wind94%30.01 "Hg10 mi
10:56 PM77 °FPartly cloudy.3 mph94%30.03 "Hg10 mi
9:56 PM77 °FLight rain. Passing clouds.6 mph90%30.03 "Hg9 mi
8:56 PM78 °FPassing clouds.3 mph87%30.02 "Hg10 mi
7:56 PM79 °FPassing clouds.7 mph82%30.01 "Hg10 mi
6:56 PM79 °FPassing clouds.6 mph84%30.00 "Hg10 mi
5:56 PM80 °FScattered clouds.7 mph79%30.00 "Hg10 mi
4:56 PM83 °FScattered clouds.15 mph77%29.98 "Hg10 mi
3:56 PM83 °FScattered clouds.13 mph74%29.96 "Hg10 mi
2:56 PM84 °FScattered clouds.17 mph72%29.97 "Hg10 mi
1:56 PM85 °FScattered clouds.20 mph75%29.98 "Hg10 mi
12:56 PM82 °FScattered clouds.16 mph77%30.00 "Hg10 mi
11:56 AM83 °FScattered clouds.16 mph74%30.03 "Hg10 mi
Weather by CustomWeather, © 2014

See weather overviewHow to use our weather pages